PAB260 LPPT-LEMD

Flight info

Callsign PAB260
Flight time N/A
Altitude 22000
Route DMT DCT CCS DCT TLD DCT VGE
Aircraft CONI/M-SDFY/C

Departure

Time 2026-05-06 12:57
Airport Lisbon Humberto Delgado Airport (LPPT)

Arrival

Time N/A
Airport Adolfo Suárez Madrid–Barajas Airport (LEMD)
Time Latitude Longitude Altitude Speed Heading
2026-05-06 12:44 38.77133 -9.13690 384 ft 0 kts 168°
2026-05-06 12:51 38.77135 -9.13690 384 ft 1 kts 168°
2026-05-06 12:51 38.77152 -9.13694 384 ft 3 kts 171°
2026-05-06 12:51 38.77172 -9.13696 384 ft 3 kts 182°
2026-05-06 12:52 38.77191 -9.13690 384 ft 3 kts 218°
2026-05-06 12:52 38.77197 -9.13677 384 ft 1 kts 258°
2026-05-06 12:52 38.77197 -9.13672 384 ft 0 kts 258°
2026-05-06 12:53 38.77191 -9.13714 384 ft 11 kts 258°
2026-05-06 12:53 38.77171 -9.13856 384 ft 16 kts 259°
2026-05-06 12:53 38.77102 -9.13918 384 ft 15 kts 196°
2026-05-06 12:54 38.76987 -9.13979 384 ft 20 kts 204°
2026-05-06 12:54 38.76849 -9.14051 384 ft 23 kts 198°
2026-05-06 12:54 38.76697 -9.14130 384 ft 22 kts 203°
2026-05-06 12:54 38.76578 -9.14199 384 ft 14 kts 206°
2026-05-06 12:55 38.76539 -9.14262 384 ft 5 kts 251°
2026-05-06 12:55 38.76536 -9.14286 384 ft 2 kts 271°
2026-05-06 12:55 38.76551 -9.14353 384 ft 14 kts 291°
2026-05-06 12:55 38.76593 -9.14416 384 ft 9 kts
2026-05-06 12:56 38.76614 -9.14409 384 ft 0 kts 23°
2026-05-06 12:56 38.76631 -9.14400 384 ft 20 kts 23°
2026-05-06 12:56 38.77020 -9.14192 385 ft 92 kts 23°
2026-05-06 12:56 38.77677 -9.13834 579 ft 108 kts 19°
2026-05-06 12:57 38.78389 -9.13451 955 ft 110 kts 19°
2026-05-06 12:57 38.79077 -9.13049 1400 ft 111 kts 22°
2026-05-06 12:57 38.79701 -9.12326 1577 ft 136 kts 55°
2026-05-06 12:57 38.79922 -9.11052 1828 ft 160 kts 83°
2026-05-06 12:58 38.79971 -9.09576 2097 ft 169 kts 84°
2026-05-06 12:58 38.80038 -9.08042 2370 ft 175 kts 81°
2026-05-06 12:58 38.80224 -9.06474 2629 ft 180 kts 75°
2026-05-06 12:58 38.80527 -9.04898 2884 ft 184 kts 71°
2026-05-06 12:59 38.80907 -9.03329 3120 ft 184 kts 68°
2026-05-06 12:59 38.81328 -9.01785 3369 ft 183 kts 66°
2026-05-06 12:59 38.81773 -9.00261 3618 ft 182 kts 66°
2026-05-06 12:59 38.82230 -8.98755 3868 ft 181 kts 65°
2026-05-06 13:00 38.82694 -8.97262 4117 ft 180 kts 65°
2026-05-06 13:00 38.83160 -8.95786 4365 ft 178 kts 65°
2026-05-06 13:00 38.83627 -8.94319 4620 ft 177 kts 65°
2026-05-06 13:00 38.84096 -8.92854 4870 ft 177 kts 65°
2026-05-06 13:01 38.84569 -8.91384 5122 ft 180 kts 65°
2026-05-06 13:01 38.85052 -8.89884 5370 ft 183 kts 65°
2026-05-06 13:01 38.85540 -8.88368 5621 ft 185 kts 65°
2026-05-06 13:01 38.86026 -8.86862 5869 ft 186 kts 65°
2026-05-06 13:02 38.86521 -8.85324 6121 ft 187 kts 65°
2026-05-06 13:02 38.87018 -8.83779 6375 ft 188 kts 65°
2026-05-06 13:02 38.87519 -8.82225 6626 ft 189 kts 65°
2026-05-06 13:02 38.88021 -8.80666 6877 ft 189 kts 66°
2026-05-06 13:03 38.88522 -8.79106 7122 ft 189 kts 66°
2026-05-06 13:03 38.89020 -8.77553 7371 ft 188 kts 66°
2026-05-06 13:03 38.89516 -8.76008 7621 ft 187 kts 66°
2026-05-06 13:03 38.90015 -8.74455 7873 ft 189 kts 66°
2026-05-06 13:04 38.90516 -8.72893 8124 ft 190 kts 66°
2026-05-06 13:04 38.91020 -8.71326 8376 ft 190 kts 66°
2026-05-06 13:04 38.91524 -8.69755 8626 ft 190 kts 66°
2026-05-06 13:04 38.92028 -8.68182 8876 ft 190 kts 66°
2026-05-06 13:05 38.92530 -8.66613 9124 ft 190 kts 66°
2026-05-06 13:05 38.93030 -8.65051 9373 ft 189 kts 66°
2026-05-06 13:05 38.93527 -8.63496 9621 ft 188 kts 66°
2026-05-06 13:05 38.94029 -8.61927 9833 ft 193 kts 66°
2026-05-06 13:06 38.94552 -8.60295 9965 ft 201 kts 66°
2026-05-06 13:06 38.95093 -8.58604 10109 ft 209 kts 66°
2026-05-06 13:06 38.95657 -8.56840 10239 ft 217 kts 66°
2026-05-06 13:06 38.96237 -8.55023 10355 ft 222 kts 66°
2026-05-06 13:07 38.96824 -8.53180 10480 ft 224 kts 66°
2026-05-06 13:07 38.97416 -8.51320 10616 ft 226 kts 66°
2026-05-06 13:07 38.98014 -8.49442 10743 ft 229 kts 66°
2026-05-06 13:07 38.98618 -8.47543 10859 ft 230 kts 66°
2026-05-06 13:08 38.99222 -8.45641 10984 ft 230 kts 66°
2026-05-06 13:08 38.99826 -8.43739 11108 ft 229 kts 66°
2026-05-06 13:08 39.00428 -8.41842 11233 ft 229 kts 66°
2026-05-06 13:08 39.01028 -8.39948 11358 ft 229 kts 66°
2026-05-06 13:09 39.01628 -8.38055 11483 ft 228 kts 66°
2026-05-06 13:09 39.02219 -8.36190 11606 ft 228 kts 66°
2026-05-06 13:09 39.02816 -8.34303 11731 ft 228 kts 66°
2026-05-06 13:09 39.03413 -8.32419 11857 ft 227 kts 66°
2026-05-06 13:10 39.04005 -8.30544 12025 ft 225 kts 66°
2026-05-06 13:10 39.04591 -8.28688 12199 ft 223 kts 66°
2026-05-06 13:10 39.05172 -8.26848 12373 ft 221 kts 66°
2026-05-06 13:10 39.05748 -8.25021 12547 ft 220 kts 67°
2026-05-06 13:11 39.06320 -8.23207 12721 ft 218 kts 67°
2026-05-06 13:11 39.06888 -8.21403 12895 ft 217 kts 67°
2026-05-06 13:11 39.07426 -8.19599 13069 ft 215 kts 69°
2026-05-06 13:11 39.07934 -8.17790 13218 ft 216 kts 69°
2026-05-06 13:12 39.08435 -8.15954 13255 ft 217 kts 69°
2026-05-06 13:12 39.08940 -8.14085 13284 ft 226 kts 70°
2026-05-06 13:12 39.09457 -8.12153 13401 ft 230 kts 70°
2026-05-06 13:12 39.09974 -8.10204 13551 ft 230 kts 70°
2026-05-06 13:13 39.10491 -8.08252 13701 ft 231 kts 70°
2026-05-06 13:13 39.11007 -8.06295 13852 ft 231 kts 70°
2026-05-06 13:13 39.11523 -8.04335 14002 ft 231 kts 70°
2026-05-06 13:13 39.12039 -8.02374 14152 ft 231 kts 70°
2026-05-06 13:14 39.12554 -8.00412 14302 ft 231 kts 70°
2026-05-06 13:14 39.13070 -7.98449 14451 ft 231 kts 71°
2026-05-06 13:14 39.13584 -7.96487 14601 ft 231 kts 71°
2026-05-06 13:14 39.14098 -7.94525 14751 ft 231 kts 71°
2026-05-06 13:15 39.14611 -7.92567 14901 ft 231 kts 71°
2026-05-06 13:15 39.15124 -7.90604 15051 ft 231 kts 71°
2026-05-06 13:15 39.15635 -7.88647 15201 ft 231 kts 71°
2026-05-06 13:15 39.16146 -7.86690 15350 ft 230 kts 71°
2026-05-06 13:16 39.16484 -7.85394 15449 ft 230 kts 71°
2026-05-06 13:16 39.16993 -7.83442 15599 ft 230 kts 71°
2026-05-06 13:16 39.17502 -7.81490 15749 ft 230 kts 71°
2026-05-06 13:16 39.18009 -7.79541 15899 ft 229 kts 71°
2026-05-06 13:17 39.18515 -7.77595 16048 ft 229 kts 71°
2026-05-06 13:17 39.19020 -7.75652 16198 ft 229 kts 71°
2026-05-06 13:17 39.19525 -7.73709 16348 ft 228 kts 71°
2026-05-06 13:17 39.20029 -7.71765 16499 ft 230 kts 71°
2026-05-06 13:18 39.20538 -7.69804 16650 ft 232 kts 71°
2026-05-06 13:18 39.21051 -7.67824 16802 ft 234 kts 71°
2026-05-06 13:18 39.21567 -7.65831 16954 ft 235 kts 71°
2026-05-06 13:18 39.22086 -7.63827 17105 ft 236 kts 71°
2026-05-06 13:19 39.22605 -7.61818 17256 ft 237 kts 71°
2026-05-06 13:19 39.23126 -7.59802 17407 ft 237 kts 71°
2026-05-06 13:19 39.23646 -7.57783 17557 ft 238 kts 71°
2026-05-06 13:19 39.24168 -7.55759 17706 ft 238 kts 71°
2026-05-06 13:20 39.24692 -7.53726 17817 ft 240 kts 71°
2026-05-06 13:20 39.25222 -7.51667 17860 ft 245 kts 71°
2026-05-06 13:20 39.25764 -7.49560 17866 ft 250 kts 71°
2026-05-06 13:20 39.26317 -7.47409 17866 ft 255 kts 71°
2026-05-06 13:21 39.26880 -7.45218 17905 ft 258 kts 71°
2026-05-06 13:21 39.27448 -7.43005 17949 ft 261 kts 71°
2026-05-06 13:21 39.28017 -7.40784 17961 ft 267 kts 71°
2026-05-06 13:21 39.28615 -7.38450 17962 ft 273 kts 71°
2026-05-06 13:22 39.29209 -7.36129 17961 ft 279 kts 71°
2026-05-06 13:22 39.29822 -7.33732 17960 ft 284 kts 71°
2026-05-06 13:22 39.30447 -7.31284 17959 ft 289 kts 71°
2026-05-06 13:22 39.31081 -7.28799 17959 ft 294 kts 71°
2026-05-06 13:23 39.31725 -7.26274 17958 ft 298 kts 71°
2026-05-06 13:23 39.32378 -7.23709 17957 ft 303 kts 71°
2026-05-06 13:23 39.33038 -7.21110 17959 ft 307 kts 71°
2026-05-06 13:23 39.33707 -7.18479 17957 ft 310 kts 71°
2026-05-06 13:24 39.34381 -7.15820 17956 ft 311 kts 71°
2026-05-06 13:24 39.35056 -7.13160 17955 ft 312 kts 71°
2026-05-06 13:24 39.35731 -7.10493 17955 ft 313 kts 71°
2026-05-06 13:24 39.36406 -7.07822 17954 ft 313 kts 71°
2026-05-06 13:25 39.37082 -7.05145 17953 ft 314 kts 71°
2026-05-06 13:25 39.37759 -7.02463 17954 ft 314 kts 71°
2026-05-06 13:25 39.38435 -6.99781 17954 ft 314 kts 71°
2026-05-06 13:25 39.39111 -6.97096 17954 ft 314 kts 71°
2026-05-06 13:26 39.39787 -6.94409 17953 ft 314 kts 71°
2026-05-06 13:26 39.40463 -6.91717 17953 ft 315 kts 71°
2026-05-06 13:26 39.41138 -6.89028 17953 ft 315 kts 71°
2026-05-06 13:26 39.41813 -6.86335 17953 ft 315 kts 71°
2026-05-06 13:27 39.42488 -6.83638 17953 ft 315 kts 71°
2026-05-06 13:27 39.43163 -6.80939 17953 ft 315 kts 71°
2026-05-06 13:27 39.43838 -6.78237 17952 ft 316 kts 71°
2026-05-06 13:27 39.44512 -6.75535 17952 ft 316 kts 71°
2026-05-06 13:28 39.45186 -6.72832 17952 ft 316 kts 71°
2026-05-06 13:28 39.45859 -6.70129 17951 ft 316 kts 71°
2026-05-06 13:28 39.46532 -6.67424 17952 ft 316 kts 71°
2026-05-06 13:28 39.47195 -6.64754 17952 ft 316 kts 71°
2026-05-06 13:29 39.47867 -6.62046 17953 ft 316 kts 72°
2026-05-06 13:29 39.48537 -6.59339 17953 ft 316 kts 72°
2026-05-06 13:29 39.49207 -6.56632 17955 ft 316 kts 72°
2026-05-06 13:29 39.49876 -6.53924 17954 ft 316 kts 72°
2026-05-06 13:30 39.50546 -6.51209 17954 ft 316 kts 72°
2026-05-06 13:30 39.51213 -6.48498 17955 ft 316 kts 72°
2026-05-06 13:30 39.51860 -6.45780 17956 ft 316 kts 72°
2026-05-06 13:30 39.52492 -6.43057 17956 ft 316 kts 73°
2026-05-06 13:31 39.53116 -6.40328 17956 ft 316 kts 73°
2026-05-06 13:31 39.53733 -6.37598 17956 ft 316 kts 73°
2026-05-06 13:31 39.54348 -6.34864 17957 ft 316 kts 73°
2026-05-06 13:31 39.54959 -6.32132 17957 ft 316 kts 73°
2026-05-06 13:32 39.55568 -6.29395 17958 ft 316 kts 73°
2026-05-06 13:32 39.56176 -6.26660 17958 ft 316 kts 73°
2026-05-06 13:32 39.56782 -6.23924 17965 ft 316 kts 73°
2026-05-06 13:32 39.57387 -6.21186 17964 ft 316 kts 73°
2026-05-06 13:33 39.57991 -6.18450 17961 ft 316 kts 73°
2026-05-06 13:33 39.58586 -6.15748 17960 ft 316 kts 73°
2026-05-06 13:33 39.59189 -6.13008 17961 ft 316 kts 73°
2026-05-06 13:33 39.59790 -6.10269 17960 ft 316 kts 73°
2026-05-06 13:34 39.60392 -6.07526 17958 ft 316 kts 73°
2026-05-06 13:34 39.60992 -6.04785 17959 ft 316 kts 73°
2026-05-06 13:34 39.61591 -6.02044 17960 ft 316 kts 73°
2026-05-06 13:34 39.62190 -5.99301 17959 ft 316 kts 73°
2026-05-06 13:35 39.62788 -5.96557 17960 ft 316 kts 73°
2026-05-06 13:35 39.63385 -5.93816 17960 ft 316 kts 73°
2026-05-06 13:35 39.63982 -5.91073 17961 ft 316 kts 73°
2026-05-06 13:35 39.64578 -5.88330 17961 ft 316 kts 73°
2026-05-06 13:36 39.65173 -5.85588 17961 ft 316 kts 73°
2026-05-06 13:36 39.65768 -5.82842 17961 ft 316 kts 73°
2026-05-06 13:36 39.66362 -5.80097 17962 ft 316 kts 73°
2026-05-06 13:36 39.66956 -5.77349 17962 ft 316 kts 73°
2026-05-06 13:37 39.67549 -5.74601 17963 ft 316 kts 73°
2026-05-06 13:37 39.68142 -5.71849 17963 ft 317 kts 73°
2026-05-06 13:37 39.68735 -5.69094 17964 ft 317 kts 74°
2026-05-06 13:37 39.69327 -5.66340 17964 ft 317 kts 74°
2026-05-06 13:38 39.69919 -5.63585 17963 ft 317 kts 74°
2026-05-06 13:38 39.70502 -5.60868 17962 ft 317 kts 74°
2026-05-06 13:38 39.71093 -5.58109 17962 ft 317 kts 74°
2026-05-06 13:38 39.71682 -5.55352 17962 ft 317 kts 74°
2026-05-06 13:39 39.72272 -5.52594 17962 ft 317 kts 74°
2026-05-06 13:39 39.72860 -5.49835 17964 ft 317 kts 74°
2026-05-06 13:39 39.73448 -5.47077 17962 ft 317 kts 74°
2026-05-06 13:39 39.73636 -5.46196 17962 ft 317 kts 74°
2026-05-06 13:40 39.74221 -5.43443 17964 ft 317 kts 74°
2026-05-06 13:40 39.74808 -5.40685 17964 ft 317 kts 74°
2026-05-06 13:40 39.75394 -5.37923 17963 ft 317 kts 74°
2026-05-06 13:41 39.75979 -5.35161 17963 ft 317 kts 74°
2026-05-06 13:41 39.76563 -5.32397 17967 ft 317 kts 74°
2026-05-06 13:41 39.77147 -5.29633 17968 ft 317 kts 74°
2026-05-06 13:41 39.77731 -5.26865 17966 ft 318 kts 74°
2026-05-06 13:42 39.78315 -5.24096 17964 ft 318 kts 74°
2026-05-06 13:42 39.78898 -5.21328 17965 ft 318 kts 74°
2026-05-06 13:42 39.79482 -5.18555 17965 ft 318 kts 74°
2026-05-06 13:42 39.80064 -5.15783 17965 ft 318 kts 74°
2026-05-06 13:43 39.80646 -5.13007 17966 ft 318 kts 74°
2026-05-06 13:43 39.81227 -5.10234 17965 ft 318 kts 74°
2026-05-06 13:43 39.81807 -5.07459 17967 ft 318 kts 74°
2026-05-06 13:43 39.82387 -5.04682 17911 ft 320 kts 74°
2026-05-06 13:44 39.82978 -5.01854 17685 ft 327 kts 74°
2026-05-06 13:44 39.83579 -4.98968 17435 ft 333 kts 74°
2026-05-06 13:44 39.84190 -4.96036 17183 ft 337 kts 74°
2026-05-06 13:44 39.84799 -4.93108 16943 ft 334 kts 74°
2026-05-06 13:45 39.85400 -4.90210 16759 ft 329 kts 75°
2026-05-06 13:45 39.86579 -4.84514 16408 ft 323 kts 75°
2026-05-06 13:45 39.87160 -4.81703 16232 ft 321 kts 75°
2026-05-06 13:46 39.87737 -4.78910 16057 ft 319 kts 75°
2026-05-06 13:46 39.88309 -4.76130 15882 ft 317 kts 75°
2026-05-06 13:46 39.88879 -4.73362 15706 ft 316 kts 75°
2026-05-06 13:46 39.89446 -4.70606 15531 ft 315 kts 75°
2026-05-06 13:47 39.90002 -4.67893 15370 ft 314 kts 75°
2026-05-06 13:47 39.90563 -4.65158 15220 ft 312 kts 75°
2026-05-06 13:47 39.91123 -4.62421 15069 ft 313 kts 75°
2026-05-06 13:47 39.91683 -4.59683 14919 ft 313 kts 75°
2026-05-06 13:48 39.92242 -4.56945 14769 ft 313 kts 75°
2026-05-06 13:48 39.92801 -4.54202 14618 ft 312 kts 75°
2026-05-06 13:48 39.93356 -4.51476 14468 ft 310 kts 75°
2026-05-06 13:48 39.93907 -4.48770 14318 ft 308 kts 75°
2026-05-06 13:49 39.94453 -4.46078 14182 ft 306 kts 75°
2026-05-06 13:49 39.94995 -4.43407 14056 ft 304 kts 75°
2026-05-06 13:49 39.95533 -4.40749 13931 ft 302 kts 75°
2026-05-06 13:49 39.96093 -4.38117 13805 ft 301 kts 72°
2026-05-06 13:50 39.96872 -4.35597 13680 ft 299 kts 65°
2026-05-06 13:50 39.97815 -4.33187 13556 ft 298 kts 61°
2026-05-06 13:50 39.98848 -4.30850 13431 ft 297 kts 59°
2026-05-06 13:50 39.99928 -4.28565 13306 ft 296 kts 57°
2026-05-06 13:51 40.01037 -4.26312 13180 ft 295 kts 57°
2026-05-06 13:51 40.02162 -4.24081 13055 ft 294 kts 56°
2026-05-06 13:51 40.03296 -4.21866 12930 ft 293 kts 56°
2026-05-06 13:51 40.04435 -4.19661 12805 ft 293 kts 56°
2026-05-06 13:52 40.05576 -4.17466 12680 ft 292 kts 56°
2026-05-06 13:52 40.06720 -4.15274 12554 ft 292 kts 56°
2026-05-06 13:52 40.07861 -4.13091 12429 ft 291 kts 56°
2026-05-06 13:52 40.09004 -4.10908 12304 ft 291 kts 56°
2026-05-06 13:53 40.10145 -4.08731 12179 ft 290 kts 56°
2026-05-06 13:53 40.11284 -4.06555 12054 ft 290 kts 56°
2026-05-06 13:53 40.12424 -4.04379 11888 ft 289 kts 56°
2026-05-06 13:53 40.13550 -4.02227 11658 ft 285 kts 56°
2026-05-06 13:54 40.14664 -4.00099 11407 ft 282 kts 56°
2026-05-06 13:54 40.15769 -3.97987 11156 ft 280 kts 56°
2026-05-06 13:54 40.16864 -3.95894 10906 ft 278 kts 56°
2026-05-06 13:54 40.17951 -3.93813 10655 ft 276 kts 56°
2026-05-06 13:55 40.19038 -3.91727 10404 ft 278 kts 56°
2026-05-06 13:55 40.20130 -3.89636 10153 ft 279 kts 56°
2026-05-06 13:55 40.21225 -3.87533 9904 ft 280 kts 56°
2026-05-06 13:55 40.22325 -3.85422 9654 ft 280 kts 56°
2026-05-06 13:56 40.23416 -3.83329 9403 ft 277 kts 56°
2026-05-06 13:56 40.24484 -3.81280 9158 ft 275 kts 56°
2026-05-06 13:56 40.25558 -3.79217 8908 ft 273 kts 56°
2026-05-06 13:56 40.26623 -3.77168 8655 ft 272 kts 56°
2026-05-06 13:57 40.27177 -3.76109 8525 ft 271 kts 55°
2026-05-06 13:57 40.28278 -3.74150 8289 ft 270 kts 55°
2026-05-06 13:57 40.29345 -3.72113 8039 ft 271 kts 57°
2026-05-06 13:57 40.30380 -3.70057 7779 ft 269 kts 57°
2026-05-06 13:58 40.31382 -3.68002 7528 ft 266 kts 58°
2026-05-06 13:58 40.32360 -3.65961 7289 ft 264 kts 58°
2026-05-06 13:58 40.33295 -3.63887 7037 ft 264 kts 63°
2026-05-06 13:58 40.34040 -3.61696 6821 ft 261 kts 68°
2026-05-06 13:59 40.34690 -3.59491 6622 ft 258 kts 70°
2026-05-06 13:59 40.35309 -3.57284 6431 ft 258 kts 70°
2026-05-06 13:59 40.35907 -3.55058 6231 ft 259 kts 73°
2026-05-06 13:59 40.36096 -3.52756 6017 ft 252 kts 95°
2026-05-06 14:00 40.35605 -3.50599 5816 ft 245 kts 118°
2026-05-06 14:00 40.34579 -3.48857 5631 ft 240 kts 134°
2026-05-06 14:00 40.33363 -3.47366 5431 ft 239 kts 139°
2026-05-06 14:00 40.32107 -3.45960 5226 ft 236 kts 140°